Regional Weather Roundup
Issued by NWS

Home | Current Version | Previous Version | Graphics & Text | Print | Product List | Glossary On
Versions: 1 2 3 4 5 6 7 8 9 10 11 12 13 14 15 16 17 18 19 20 21 22 23 24 25 26 27 28 29 30 31 32 33 34 35 36 37 38 39 40 41 42 43 44 45 46 47 48 49 50
000
ASUS43 KTOP 251708
RWRKS

WEATHER ROUNDUP FOR KANSAS
NATIONAL WEATHER SERVICE GOODLAND KS
1200 PM CDT TUE APR 25 2017

NOTE:  "FAIR" INDICATES FEW OR NO CLOUDS BELOW 12,000 FEET WITH NO
SIGNIFICANT WEATHER AND/OR OBSTRUCTIONS TO VISIBILITY.

KSZ001>006-013>018-027>032-041>047-251800-
NORTHWEST KANSAS

CITY           SKY/WX    TMP DP  RH WIND       PRES   REMARKS
GOODLAND       CLOUDY    53  43  68 NE9       29.56S
HAYS           CLOUDY    54  45  71 N18       29.50R
HILL CITY      CLOUDY    55  44  66 N17       29.54R
RUSSELL        CLOUDY    54  44  69 N20       29.48R
$$

KSZ061>065-074>080-084>089-251800-
SOUTHWEST KANSAS

CITY           SKY/WX    TMP DP  RH WIND       PRES   REMARKS
DODGE CITY     CLOUDY    56  45  66 N20G28    29.48R
ELKHART          N/A     53  42  66 N14         N/A
GARDEN CITY    CLOUDY    54  45  71 N23G30    29.50F
GREAT BEND     CLOUDY    57  48  72 N20       29.47R
PRATT          CLOUDY    60  50  70 N17       29.44R
$$

KSZ066>073-081>083-090>101-251800-
SOUTHEAST KANSAS

CITY           SKY/WX    TMP DP  RH WIND       PRES   REMARKS
CHANUTE        SUNNY     72  56  57 S21G31    29.40F
COFFEYVILLE    MOSUNNY   72  58  61 S18G29    29.42S
HUTCHINSON     CLOUDY    67  54  63 NW8       29.41R
MEDICINE LODGE   N/A     68  53  58 N16       29.41R
NEWTON         PTSUNNY   71  56  58 W8        29.41R
PARSONS        SUNNY     72  56  57 S17G30    29.42F
WICHITA INTL   MOSUNNY   72  57  59 SW12      29.39R
WICHITA JABRA  SUNNY     72  56  57 SW13      29.39R
WICHITA MCCONL MOSUNNY   72  56  57 W9G17     29.39R
WINFIELD       SUNNY     74  58  57 S16G23    29.38S
$$

KSZ007>012-019>026-033>040-048>060-102>105-251800-
NORTHEAST KANSAS

CITY           SKY/WX    TMP DP  RH WIND       PRES   REMARKS
CONCORDIA      CLOUDY    55  47  74 N15       29.47R
EMPORIA        CLOUDY    71  56  58 S14G23    29.40R
LAWRENCE       CLOUDY    72  54  53 S13G23    29.41F
MANHATTAN      CLOUDY    67  53  61 SW8       29.41R
MARYSVILLE     CLOUDY    64  52  63 NW10      29.43S
OLATHE IND     CLOUDY    71  54  54 S13G21    29.42F
OLATHE EXE     PTSUNNY   68  54  60 S15G22    29.43F
SALINA         CLOUDY    66  53  63 NW12      29.43R
TOPEKA BILLARD PTSUNNY   70  54  56 S7G18     29.40S
TOPEKA FORBES  CLOUDY    71  54  54 SW12      29.40S
$$



USA.gov is the U.S. government's official web portal to all federal, state and local government web resources and services.